Regional Weather Roundup
Issued by NWS Sterling, VA

Home | Current Version | Previous Version | Graphics & Text | Print | Product List | Glossary On
Versions: 1 2 3 4 5 6 7 8 9 10 11 12 13 14 15 16 17 18 19 20 21 22 23 24 25 26 27 28 29 30 31 32 33 34 35 36 37 38 39 40 41 42 43 44 45 46 47 48 49 50
000
ASUS41 KLWX 300910
RWRLWX

REGIONAL WEATHER ROUNDUP
NATIONAL WEATHER SERVICE BALTIMORE MD/WASHINGTON DC
500 AM EDT TUE JUN 30 2015

Note: "FAIR" indicates few or no clouds below 12,000 feet
with no significant weather and/or obstructions to visibility.
 TC=TEMPERATURE CELSIUS

 * =Non NWS site. Station does not report precipitation (e.g. rain,
    snow, etc.), thunder, or fog.

DCZ001-MDZ009-015-VAZ040>042-051-053>054-301000-
WASHINGTON METRO

CITY           SKY/WX    TMP DP  RH WIND       PRES   REMARKS
WASHINGTON NAT PTCLDY    72  67  84 SE6       29.90F
DULLES         PTCLDY    65  62  90 CALM      29.90S
ANDREWS AFB    CLEAR     67  67  99 SE7       29.90S
FT BELVOIR     CLEAR     63  61  94 CALM      29.90S
QUANTICO       CLEAR     73  68  84 S14       29.90S
COLLEGE PARK*  CLEAR     63  63 100 CALM      29.90S
LEESBURG*      PTCLDY    64  63  94 CALM      29.90S
MANASSAS*      CLEAR     63  61  94 CALM      29.90R
GAITHERSBURG*  MOCLDY    63  59  88 SE5       29.94S

$$

MDZ006>007-011-014-301000-
BALTIMORE METRO

CITY           SKY/WX    TMP DP  RH WIND       PRES   REMARKS
BWI AIRPORT    PTCLDY    65  61  87 CALM      29.90S
MD SCIENCE CTR   N/A     71  63  75 MISG      29.91S
MARTIN STATE   CLEAR     72  70  94 SE7       29.92S
ANNAPOLIS      CLEAR     73  69  87 SE8       29.90S
FORT MEADE*    CLEAR     59  59 100 CALM      29.93S

$$

MDZ012-015-019>023-301000-
MARYLAND EASTERN SHORE

CITY           SKY/WX    TMP DP  RH WIND       PRES   REMARKS
OCEAN CITY     CLEAR     72  66  81 CALM      29.95S
SALISBURY      CLEAR     65  64  97 SE7       29.94S
BAY BRIDGE AP*   N/A     72  68  88 SE7       29.91S
CAMBRIDGE*     CLEAR     72  68  88 SE8       29.92S
EASTON*        CLEAR     70  69  98 S5        29.95S

$$

MDZ017>025-301000-
SOUTHERN MARYLAND

CITY           SKY/WX    TMP DP  RH WIND       PRES   REMARKS
PATUXENT RIVER CLEAR     73  69  87 S5        29.91S
ST INIGOES     PTCLDY    76  72  87 S10       29.91R
LEONARDTOWN*   CLEAR     70  68  94 CALM      29.93S

$$

MDZ003>005-301000-
NORTH CENTRAL MARYLAND

CITY           SKY/WX    TMP DP  RH WIND       PRES   REMARKS
FREDERICK*     MOCLDY    63  63 100 CALM      29.92S
HAGERSTOWN APT CLOUDY    71  59  65 S8        29.87F
WESTMINSTER*   MOCLDY    68  64  88 SE8       29.91S

$$

MDZ501>502-301000-
WESTERN MARYLAND

CITY           SKY/WX    TMP DP  RH WIND       PRES   REMARKS
OAKLAND*       MOCLDY    59 N/A N/A SW6       29.94R
CUMBERLAND*    MOCLDY    64  64 100 E3        29.91S

$$

VAZ025>031-301000-
SHENANDOAH VALLEY

CITY           SKY/WX    TMP DP  RH WIND       PRES   REMARKS
WINCHESTER*    MOCLDY    64  63  94 CALM      29.88S
FRONT ROYAL*   FAIR      63  61  94 CALM      29.87S
LURAY*         FAIR      64  64 100 S3        29.88F
NEW MARKET*    FAIR      62  60  95 CALM      29.88S
STAUNTON*      CLEAR     63  60  90 CALM      29.92F
WAYNESBORO*    FAIR      62  58  87 CALM      29.91F

$$

WVZ021-048>050-054>055-301000-
EASTERN WEST VIRGINIA PANHANDLE

CITY           SKY/WX    TMP DP  RH WIND       PRES   REMARKS
MARTINSBURG    CLOUDY    66  61  84 CALM      29.88F
PETERSBURG*    MOCLDY    63  59  86 CALM      29.88F

$$

VAZ036>039-050-301000-
CENTRAL FOOTHILLS

CITY           SKY/WX    TMP DP  RH WIND       PRES   REMARKS
CHARLOTTESVILL CLEAR     61  59  93 CALM      29.89F
CULPEPER*        N/A     60  60  99 CALM      29.90F
ORANGE*        CLEAR     63  61  94 CALM      29.91S
GORDONSVILLE*  FAIR      61  61 100 CALM      29.90S
WARRENTON*     FAIR      61  61 100 CALM      29.89S

$$

VAZ055>057-301000-
NORTH AND CENTRAL PIEDMONT

CITY           SKY/WX    TMP DP  RH WIND       PRES   REMARKS
FREDERICKSBRG* CLEAR     70  70  99 SE5       29.89S
STAFFORD*      CLEAR     60  59  97 CALM      29.94S

$$

NCZ024-NYZ072-PAZ021-071-VAZ022-071-301000-
OTHER REGIONAL OBSERVATIONS

CITY           SKY/WX    TMP DP  RH WIND       PRES   REMARKS
NEW YORK CITY  CLEAR     69  57  65 CALM      29.98S
PHILADELPHIA   MOCLDY    68  61  78 CALM      29.94S
PITTSBURGH     CLOUDY    63  61  93 S5        29.82S
ROANOKE        MOCLDY    64  62  93 W5        29.93F
RICHMOND       PTCLDY    71  67  87 S5        29.91S
RALEIGH        PTCLDY    70  61  73 CALM      29.93S

$$

ANZ530>537-301000-
MARINE OBSERVATIONS

STATION/POSITION TIME  TEMP    WIND        PRES
                       AIR SEA DIR/SP/G
                 (UTC) (F)     (DEG/KT/KT) (MB)
THOMAS PT LIGHT  NOT AVBL
BALT KEY BRIDGE  0800   72     150/  4/  5 1012.5F
COVE POINT       0800   76     190/ 18/ 19 1013.3F
LEWISETTA        0800   74 80  180/  8/ 10 1012.5S
SOLOMONS ISLAND  0800      78                N/A
PINEY POINT      0800          190/ 14/ 15   N/A

$$




USA.gov is the U.S. government's official web portal to all federal, state and local government web resources and services.